RH
7 8 11 12 12 14 17 22 26 30 33 35 36 38 42 44 45 46 45 44 43 42 42 41 40 38 37 36 34 33 32 30 28 26 25 24 23 23 22 21 20 20 20 21 22 22 23 24 24 23 21 20 18 17 15 14 13 13 12 11 11 11 10 10 10 10 10 11 10 11 11 11 11 11 11 11 12 12 13 14 15 17 18 19 20 20 21 22
7 7 10 12 13 14 16 20 25 29 34 36 37 39 41 44 46 46 46 45 45 44 45 45 44 42 40 38 36 34 32 31 29 28 27 26 25 24 24 24 23 23 24 24 26 27 28 28 26 24 22 20 18 17 15 14 13 12 11 11 10 10 11 10 10 10 10 10 10 11 10 10 11 11 12 12 13 14 15 16 18 19 19 21 21 21 22 24
7 7 9 12 14 15 16 19 23 28 33 37 38 39 41 44 46 47 47 46 46 46 47 47 46 45 43 41 38 36 34 32 31 29 29 28 27 27 27 27 27 27 28 29 30 31 31 29 26 24 21 19 17 16 14 13 12 11 11 11 11 11 11 11 11 11 10 11 10 10 11 11 12 12 13 14 15 16 16 18 19 20 20 21 21 23 26 28
7 8 9 12 15 17 18 19 22 27 32 36 39 40 41 44 46 47 48 48 48 48 48 48 48 47 45 43 40 38 36 34 33 32 31 30 30 30 31 31 31 31 32 33 34 33 30 27 23 21 19 17 15 14 13 12 12 12 11 11 12 12 12 11 11 11 11 11 11 11 12 12 13 14 15 16 16 17 18 20 20 21 22 24 25 26 28 32
8 8 9 12 16 18 20 21 23 26 30 35 39 40 42 44 47 48 48 48 49 49 49 48 48 47 46 44 42 40 38 37 35 34 34 34 34 34 34 34 34 35 36 37 35 31 27 24 21 19 18 16 15 14 13 13 12 13 12 13 13 13 13 12 12 12 12 12 12 13 13 14 15 15 16 16 17 18 19 19 20 22 23 24 25 27 33 36
9 9 10 13 17 20 22 23 24 26 30 34 39 41 43 45 47 49 49 49 49 49 49 48 47 47 47 46 44 41 40 39 38 37 37 36 37 37 37 36 37 38 38 36 31 27 24 21 20 19 18 16 15 15 14 14 13 13 13 14 14 14 14 14 14 13 14 14 14 15 15 16 16 16 17 17 18 18 20 21 21 22 23 26 28 32 37 35
10 9 11 14 18 22 23 25 25 27 30 34 39 42 44 46 48 50 49 49 50 49 47 47 47 47 48 47 45 43 41 40 40 39 39 40 41 40 38 38 40 40 36 31 26 24 22 21 20 20 18 16 16 15 15 15 15 15 15 16 16 16 16 16 15 15 15 15 16 16 16 17 17 20 20 18 19 20 22 24 26 27 25 26 28 32 39 42
11 10 12 15 19 23 25 26 27 28 31 35 40 43 46 48 50 51 51 51 49 49 49 48 48 49 48 47 45 43 42 42 43 42 43 44 43 40 40 41 40 36 31 26 24 23 22 21 19 18 17 16 17 17 18 18 18 18 18 18 18 17 17 16 16 16 15 15 16 15 15 16 17 21 22 22 23 24 36 42 35 31 30 37 44 50 60 68
12 12 13 16 20 24 26 28 29 31 34 38 42 46 49 51 52 53 52 52 51 51 51 50 51 50 49 48 46 45 45 46 47 47 48 46 43 42 42 41 36 30 27 25 24 23 21 20 18 17 18 18 20 21 21 21 20 20 20 20 19 18 17 17 16 15 15 15 16 16 16 17 21 26 29 37 40 42 63 65 47 43 48 65 79 81 85 91
13 14 16 19 23 26 28 30 32 34 37 42 46 49 52 54 55 56 55 55 55 55 54 54 53 52 50 49 48 49 51 51 51 51 49 44 43 44 41 35 30 27 26 25 23 22 21 19 19 19 20 23 24 23 22 21 21 20 19 19 18 18 18 19 18 18 19 19 20 22 25 30 36 40 45 67 73 69 81 75 63 70 76 88 98 96 97 100
15 16 18 22 25 28 31 33 36 39 42 46 49 53 55 58 59 60 61 60 59 58 58 57 56 55 54 53 54 54 54 53 53 50 45 44 43 41 35 29 27 26 25 23 22 22 21 20 20 22 25 25 24 23 22 21 20 20 19 20 19 20 23 26 27 28 31 31 33 39 51 56 55 57 68 90 93 87 93 85 84 93 88 93 100 98 100 98
16 18 20 24 27 30 33 36 40 44 47 50 53 57 60 63 65 66 66 65 64 63 62 62 61 59 58 56 55 54 54 53 50 46 44 44 40 34 30 28 27 25 23 23 24 24 23 23 24 27 27 26 24 23 22 20 20 22 23 23 25 29 34 41 45 49 53 54 56 64 78 79 72 79 90 99 99 97 100 95 98 99 87 90 92 88 89 83
17 19 22 26 29 33 37 41 45 48 50 53 57 62 65 68 70 71 71 70 69 68 68 66 64 60 57 56 55 54 53 49 46 45 43 39 34 31 29 28 25 24 24 25 27 26 26 28 29 29 27 25 24 22 22 21 23 30 31 32 41 50 55 62 67 70 75 81 84 88 94 94 92 98 100 99 99 98 97 93 96 92 81 81 77 74 74 72
20 22 25 29 33 38 42 46 48 50 53 58 63 67 70 73 75 76 77 76 76 74 71 66 61 57 55 55 55 53 50 46 46 43 38 33 31 30 29 27 25 25 26 30 34 31 30 31 29 26 25 24 23 23 24 24 31 43 45 48 63 73 76 80 83 82 86 93 99 100 101 100 99 102 102 100 99 98 96 94 94 89 86 86 78 78 83 85
23 25 29 33 37 42 45 48 50 54 60 64 68 71 74 76 78 81 82 81 78 73 67 61 57 55 56 57 54 50 47 45 42 36 33 31 30 29 29 29 27 27 31 37 40 35 32 31 27 26 25 26 28 29 34 37 46 57 60 68 82 86 90 94 92 93 94 96 100 100 101 101 99 101 102 100 99 99 99 100 98 87 86 94 92 93 98 99
26 28 32 36 41 45 47 50 55 60 64 67 70 72 75 78 80 82 80 77 71 64 59 56 56 57 57 55 51 47 44 40 35 33 32 31 30 31 34 34 32 34 38 40 38 33 32 30 27 28 30 35 39 42 48 50 59 71 78 87 92 92 99 101 97 103 104 99 100 100 99 99 94 93 96 99 101 100 100 100 92 80 83 96 101 101 101 97
30 32 36 40 43 46 49 53 58 62 65 67 69 72 75 77 77 74 70 65 61 58 57 57 57 55 53 50 47 43 38 35 34 33 32 32 34 38 41 42 42 43 40 37 34 30 31 30 30 37 46 51 50 52 60 61 69 88 97 99 99 99 103 103 101 105 105 100 99 96 93 90 83 80 83 92 97 92 86 81 77 85 94 98 98 97 91 85
35 37 40 43 46 49 53 57 60 63 64 66 67 69 71 70 66 62 60 58 57 56 55 55 53 51 49 45 41 36 33 33 32 31 32 36 41 47 51 51 49 44 36 33 30 29 32 34 41 57 66 63 58 65 75 73 77 96 105 101 102 105 104 105 104 102 104 107 104 96 90 87 85 89 90 90 90 84 77 68 70 85 94 95 94 91 85 84
40 42 44 47 50 53 55 57 59 61 61 62 62 62 61 59 57 56 56 55 53 53 52 51 49 46 43 39 35 34 32 31 31 31 35 41 50 58 58 50 42 36 32 30 29 33 40 46 61 76 76 69 72 88 92 81 82 97 107 102 100 105 107 108 104 95 96 101 103 103 99 89 85 92 96 93 90 88 85 80 82 91 96 99 96 89 87 88
42 45 47 49 50 52 54 55 57 57 57 57 57 56 54 54 54 54 53 53 52 51 50 47 44 41 38 36 35 34 33 34 37 41 48 55 61 61 51 38 34 33 32 31 32 40 51 65 82 89 83 77 86 101 96 80 81 92 98 93 88 94 102 106 105 98 92 90 94 103 104 94 84 82 85 87 87 88 91 93 97 102 102 100 94 90 90 89
45 45 47 48 49 50 51 51 50 50 52 53 54 53 54 54 54 55 54 53 51 49 46 44 42 40 38 36 36 38 42 48 58 67 73 70 59 49 39 31 31 33 32 31 37 52 68 81 94 98 90 84 92 102 91 76 79 87 88 87 86 89 92 95 100 100 97 96 97 100 102 100 96 93 92 93 94 95 98 103 106 105 102 100 98 95 92 89
47 47 48 48 49 48 47 47 48 51 53 53 55 56 57 57 57 56 54 51 49 47 45 42 40 38 36 36 37 42 46 56 72 79 71 58 43 37 33 28 30 33 34 37 47 70 86 89 95 100 93 89 97 104 93 83 89 95 96 95 95 99 99 96 98 100 99 102 103 102 102 101 99 99 100 101 103 104 103 103 102 99 99 101 101 98 92 87
47 46 47 47 46 45 46 48 50 52 53 54 55 56 56 54 52 50 48 47 46 43 41 39 38 38 37 38 39 44 48 55 64 60 48 39 34 33 29 27 32 36 40 47 62 88 100 96 98 99 90 90 102 106 97 91 96 101 102 102 100 100 102 101 100 100 97 95 96 96 98 102 105 103 104 104 101 98 96 97 98 97 101 102 98 92 85 78
48 46 45 45 45 47 50 53 54 55 57 57 56 54 52 50 48 46 44 43 40 39 40 42 45 48 49 54 62 67 62 54 48 40 35 34 32 32 29 28 36 44 49 60 81 103 108 106 104 97 88 86 96 104 99 94 100 103 101 104 105 101 102 103 99 92 84 79 80 81 83 94 104 106 108 107 99 93 94 98 101 102 102 96 87 81 78 76
54 51 50 51 54 59 63 66 66 65 63 59 54 50 48 46 44 43 42 42 43 45 47 48 52 55 59 66 70 67 54 42 36 32 33 33 32 33 30 31 41 51 57 70 94 108 110 112 105 93 87 82 87 100 102 99 100 98 93 97 104 103 103 104 98 85 75 73 74 75 82 92 96 97 100 99 94 95 100 102 103 103 97 88 85 85 87 85
60 59 59 61 66 72 75 75 70 64 58 51 48 46 46 46 46 48 50 51 54 55 55 58 59 58 56 53 48 42 36 32 31 30 32 32 32 32 29 32 47 57 60 73 97 108 108 113 106 90 82 78 82 93 100 99 94 93 97 99 101 100 101 103 98 87 79 78 73 73 88 99 96 93 93 93 95 99 104 105 102 97 90 85 85 86 85 80
63 62 63 67 73 75 72 66 58 52 48 47 50 52 54 56 58 61 63 64 68 70 68 64 57 49 42 37 34 32 31 30 29 30 32 31 32 31 29 40 58 67 69 76 95 110 107 107 107 93 79 77 78 83 90 88 83 93 106 106 103 101 100 102 100 93 89 86 77 74 84 93 96 97 94 97 102 101 101 100 95 90 85 83 80 77 75 73
61 61 62 65 66 61 53 48 45 46 50 54 58 62 67 70 73 77 77 77 77 74 65 53 43 38 35 34 34 34 33 33 34 33 31 30 30 32 40 58 71 78 85 84 90 105 107 104 108 101 88 81 76 77 81 75 71 90 107 106 103 101 100 102 102 98 91 85 81 83 83 86 97 101 97 100 102 98 95 91 88 86 85 86 80 73 72 71
57 56 56 55 52 48 46 48 52 58 64 67 68 72 78 81 85 86 80 74 67 58 49 42 37 35 35 35 34 34 34 34 33 31 29 28 29 37 55 72 78 85 98 98 93 98 102 101 100 97 94 90 82 76 75 69 65 83 103 103 97 96 96 100 104 103 92 82 83 91 89 85 93 99 95 95 94 91 90 87 84 84 84 85 79 72 73 73
51 52 51 50 49 52 58 64 71 76 77 78 80 84 88 87 85 79 69 60 54 48 42 38 35 33 33 33 31 33 35 33 30 30 31 32 38 50 65 78 86 91 99 102 101 99 98 99 96 91 88 89 87 81 78 75 73 85 100 98 94 97 97 97 103 106 98 88 88 98 101 92 89 95 92 88 86 84 84 83 82 80 79 79 76 75 76 73
50 52 53 56 59 66 76 84 88 86 84 84 86 88 87 81 74 69 64 58 50 43 38 35 35 33 32 30 29 33 36 35 33 32 33 40 50 59 66 80 93 99 100 100 102 100 99 103 104 100 94 90 92 89 86 88 91 98 100 91 90 99 102 99 99 103 103 98 92 95 102 98 91 90 88 83 80 77 74 72 71 72 75 77 77 76 73 70
51 54 58 65 75 83 89 89 87 86 88 88 86 85 83 78 72 66 61 53 45 41 39 38 36 35 34 29 28 34 37 37 39 38 43 52 61 64 70 83 95 102 105 102 101 102 103 105 104 103 101 98 98 96 94 97 102 106 99 91 94 102 106 100 92 93 100 102 96 89 90 92 88 82 77 74 72 70 68 67 67 69 73 74 72 73 71 72
51 59 70 80 89 91 88 86 87 90 91 88 87 89 87 78 67 57 50 45 43 42 42 42 38 36 36 31 32 38 38 40 45 46 53 64 71 73 77 84 93 101 106 105 107 109 109 108 105 102 101 101 102 100 99 101 107 109 102 98 102 107 108 99 85 83 88 93 93 87 82 81 78 72 67 66 68 72 72 70 69 70 70 69 70 76 79 78
63 75 83 89 91 89 88 91 94 92 88 88 90 88 74 60 50 44 42 42 43 45 45 43 40 37 38 36 38 44 41 41 48 54 63 71 78 81 80 82 89 97 102 104 108 110 108 106 106 105 104 103 105 106 103 100 103 108 106 104 106 108 107 96 81 78 81 84 87 86 80 74 72 70 68 71 75 78 75 69 66 64 67 71 74 81 85 86
85 90 89 91 91 91 95 94 90 89 91 92 85 69 52 45 44 41 41 41 44 48 48 45 40 37 40 42 46 51 47 44 49 59 69 77 80 81 82 87 93 96 99 104 106 105 101 96 97 102 105 104 102 103 100 96 97 100 104 109 107 103 98 89 79 76 76 78 80 81 79 74 72 72 74 79 82 81 74 66 61 60 68 78 78 84 92 90
94 94 93 96 97 99 99 91 90 96 95 85 68 52 45 47 46 43 43 44 45 48 49 47 42 39 45 49 52 55 54 52 53 58 68 76 81 83 89 97 101 97 94 95 96 90 80 77 79 84 90 93 92 92 90 87 87 87 92 99 98 92 88 81 74 70 67 68 70 71 72 71 71 75 80 83 83 78 68 60 57 59 72 83 81 86 90 80
93 96 96 99 104 102 95 92 100 101 86 71 59 50 49 49 48 46 46 47 49 50 52 51 46 45 49 51 52 53 54 57 60 62 65 72 80 88 94 95 94 91 84 80 79 72 65 66 69 67 68 71 73 75 78 79 78 76 77 81 84 82 78 74 71 68 66 67 67 66 67 69 72 76 78 77 75 69 61 56 55 61 75 84 84 83 75 70
93 97 96 102 105 93 87 98 103 91 74 67 60 52 50 49 47 48 49 50 53 53 53 54 52 52 52 50 51 53 54 58 64 67 70 74 80 84 83 78 76 75 73 72 73 71 68 67 67 68 68 68 68 68 69 70 69 68 68 68 70 71 70 69 69 69 72 75 71 65 66 70 75 77 75 72 68 63 58 53 54 63 76 87 91 79 64 70
92 95 100 107 99 82 86 97 88 75 73 69 57 49 49 49 49 49 49 50 51 50 51 52 51 52 51 49 50 52 54 57 60 64 69 74 78 78 71 66 64 65 68 70 71 71 72 67 62 67 72 73 76 77 76 77 74 71 69 65 64 66 66 67 68 72 83 86 77 68 68 73 79 79 75 70 65 61 55 51 55 67 78 91 95 77 63 72
96 100 106 104 88 78 86 85 74 74 77 64 50 48 51 53 52 52 53 53 53 53 54 56 54 53 52 51 51 53 53 54 56 57 60 61 62 63 61 59 61 62 64 68 67 66 72 74 70 70 73 74 79 84 88 90 88 84 80 74 70 68 67 69 72 79 88 87 78 70 68 70 73 70 63 58 55 53 52 54 60 67 72 84 87 71 63 68
103 105 106 94 77 76 78 73 75 80 68 52 50 54 55 55 57 61 62 60 58 56 56 58 58 56 54 52 53 54 53 53 53 53 54 53 51 51 51 52 54 54 54 60 64 65 69 79 84 83 80 79 80 82 86 89 89 87 87 85 80 75 72 72 75 80 84 81 75 68 62 62 64 60 54 50 47 47 52 57 59 60 64 73 74 64 63 65
103 103 101 85 70 72 72 70 80 76 54 50 59 59 55 57 61 63 60 53 50 48 46 47 49 48 49 49 50 52 52 52 52 52 52 53 52 49 48 47 48 49 50 52 56 58 62 71 79 82 78 71 65 63 67 74 76 76 79 81 80 78 76 76 77 79 78 74 68 60 54 56 59 56 51 46 45 49 54 54 52 53 57 61 60 57 59 59
101 100 96 77 65 70 70 74 85 69 48 58 66 54 49 54 56 54 50 47 45 44 44 44 44 45 46 47 48 49 51 51 52 52 52 54 54 52 52 52 51 52 52 51 49 49 52 55 58 61 62 57 49 45 47 53 56 55 55 58 62 64 65 66 68 70 68 64 59 52 49 54 57 52 48 46 48 52 50 46 47 49 49 48 47 50 53 52
100 99 89 70 61 67 69 77 86 64 48 68 70 52 47 48 50 52 49 50 49 47 47 46 45 47 46 47 47 45 46 46 46 47 48 50 51 49 48 48 49 50 48 48 46 46 48 49 47 48 50 49 47 45 44 43 43 43 44 46 48 50 51 52 51 52 52 51 49 49 50 52 51 48 47 47 46 44 41 41 43 43 41 40 40 42 46 44
97 97 84 67 61 68 71 78 83 62 51 69 68 56 53 48 51 59 55 54 54 50 51 50 49 51 49 50 51 47 44 42 40 41 41 45 49 48 45 42 43 44 44 44 45 46 48 47 45 45 46 45 44 43 44 42 41 43 45 46 46 46 46 44 42 42 43 45 48 51 50 50 50 48 44 41 37 36 36 37 38 38 37 36 34 34 35 34
92 98 84 65 61 71 75 79 83 65 54 65 65 64 64 53 54 64 61 60 60 55 57 56 53 52 49 49 53 52 49 44 40 40 40 40 43 45 46 46 45 44 44 47 49 51 53 52 51 52 52 49 47 45 46 46 47 48 49 48 47 46 45 43 42 42 43 47 50 49 48 50 48 42 36 34 34 33 33 34 35 36 35 33 31 30 30 30
89 98 85 65 63 79 85 83 82 69 56 58 61 70 73 58 55 65 66 67 66 62 63 60 54 53 49 48 51 52 51 47 43 42 40 38 37 38 41 46 49 46 44 47 50 53 59 60 58 55 50 49 48 46 47 47 46 46 45 45 46 44 43 42 42 44 46 48 48 47 48 46 41 35 34 35 35 33 32 33 33 34 34 32 31 30 30 31
90 96 82 67 69 86 94 88 79 70 60 52 53 71 78 62 56 65 70 72 67 61 63 62 56 53 50 48 49 50 50 50 47 43 40 39 36 34 36 39 41 41 39 41 42 45 50 53 51 47 44 44 44 43 44 43 42 42 41 41 40 39 42 45 47 48 47 45 44 44 42 39 35 35 35 35 35 34 33 33 33 33 33 32 32 32 33 34
92 91 78 70 74 83 91 89 78 69 62 50 54 78 83 64 57 65 70 70 65 59 61 62 59 54 50 49 49 51 52 51 50 44 39 39 38 36 36 36 36 36 36 37 38 39 41 42 42 43 43 44 44 43 43 43 43 44 42 40 41 43 50 55 52 45 40 38 38 37 36 36 36 35 35 36 37 36 35 35 35 34 34 33 34 35 36 38
94 88 75 72 75 75 82 86 78 71 65 54 62 85 86 68 62 65 67 66 62 60 61 62 62 59 55 55 55 55 54 52 52 48 40 39 39 37 36 36 36 36 36 37 38 39 39 38 38 39 40 41 42 41 42 43 45 45 44 44 46 48 51 50 43 36 35 36 36 35 34 36 36 37 37 38 38 37 37 38 36 36 37 37 37 39 41 42
95 88 77 75 75 70 73 80 79 76 70 58 65 82 81 72 68 65 65 65 62 62 63 63 65 64 60 62 64 61 56 52 53 51 44 41 40 38 37 37 36 36 36 37 38 39 39 37 37 37 37 37 37 38 39 40 39 39 41 43 43 41 41 39 37 36 36 36 36 35 35 36 37 39 39 39 39 40 40 40 39 39 40 40 41 43 45 47
98 90 81 79 77 68 66 74 80 82 75 61 61 72 74 72 69 65 64 65 64 64 63 63 64 63 62 66 69 68 63 56 54 53 49 45 43 41 40 38 36 36 36 37 38 40 41 39 36 35 36 35 34 36 38 38 39 39 40 39 38 37 37 38 38 38 38 38 38 37 36 37 38 39 40 40 41 42 42 43 43 43 43 44 46 47 48 48
Wind_Speed
62 66 69 73 79 86 91 95 97 97 96 94 92 91 90 89 87 85 84 83 81 79 77 76 75 74 74 74 74 73 73 72 72 71 70 70 69 69 68 67 67 66 66 65 65 64 65 65 65 65 65 66 66 67 67 68 69 70 71 72 72 73 74 74 74 74 74 73 72 71 70 69 68 67 66 66 66 65 64 63 62 61 60 58 57 55 54 54
55 60 63 67 72 78 85 90 93 95 95 94 91 90 89 87 86 84 83 81 80 78 76 75 74 73 73 73 72 72 71 71 70 69 69 69 68 67 66 66 66 66 65 64 64 63 63 63 63 63 64 64 64 65 65 66 67 68 68 69 70 70 70 70 70 70 69 68 67 67 65 64 63 63 62 62 62 61 60 60 59 58 57 56 55 53 52 50
49 54 57 61 65 72 78 84 88 91 93 93 91 89 87 86 85 83 81 80 78 77 75 74 73 72 72 72 71 71 70 69 69 68 67 67 66 65 65 64 64 64 63 63 62 61 60 60 60 61 61 62 62 63 63 64 65 66 66 66 66 66 66 65 65 64 64 63 63 62 61 60 59 59 58 58 58 58 57 56 56 56 54 53 52 50 47 45
43 48 52 55 60 66 72 78 83 87 90 91 90 88 86 84 83 81 80 78 76 75 74 73 72 71 71 70 70 69 68 67 67 66 66 65 64 63 62 62 62 62 61 60 59 58 58 58 58 58 59 59 60 60 61 61 62 63 62 61 61 61 60 60 60 59 59 58 58 57 57 56 56 56 56 56 56 55 54 53 53 52 50 49 47 45 43 41
39 43 47 51 55 61 68 73 78 82 85 87 87 86 84 82 81 79 78 76 74 73 72 71 71 70 70 69 68 68 67 66 65 64 63 62 61 60 60 59 59 58 57 56 56 55 55 54 55 55 56 57 57 57 59 58 58 57 57 55 55 55 55 56 55 55 54 54 54 54 54 54 54 54 54 54 53 52 52 52 51 49 47 45 44 41 39 38
35 40 44 48 52 58 64 69 73 77 80 83 84 84 82 81 79 77 75 74 72 71 70 70 69 68 68 67 67 66 65 64 63 62 61 59 58 57 56 56 56 55 54 53 52 51 51 51 51 52 53 53 53 53 54 54 53 51 51 50 51 51 51 51 52 51 50 50 51 50 51 51 52 52 52 51 51 50 50 49 48 46 44 42 39 37 35 35
33 37 42 46 50 56 61 65 69 72 75 78 80 80 80 78 76 75 73 71 70 70 68 67 67 66 66 65 65 64 63 62 61 59 58 56 55 54 54 53 52 51 51 50 49 48 48 48 48 49 49 49 49 49 50 49 48 47 47 47 48 48 47 48 48 48 47 47 47 47 47 47 49 48 48 47 46 45 43 42 42 41 38 36 34 33 31 29
32 36 41 45 49 53 58 62 65 68 71 73 75 76 76 75 74 72 70 69 68 67 66 65 65 64 64 63 62 61 61 59 58 57 55 53 52 52 51 50 48 48 48 47 46 46 45 45 45 46 46 45 45 45 45 45 44 43 43 44 44 44 45 45 46 45 44 44 43 43 42 42 42 41 40 38 37 35 31 31 34 32 28 26 26 24 23 22
32 36 40 44 47 51 55 59 62 65 67 69 70 71 72 72 71 69 68 66 65 64 63 63 62 62 62 61 60 59 58 57 55 54 52 51 50 49 48 47 45 45 45 44 43 43 43 43 43 43 42 41 41 41 41 41 40 40 40 40 40 41 41 41 41 41 39 37 36 35 34 32 31 31 30 25 25 23 20 21 23 20 16 15 17 18 17 16
31 35 38 42 46 50 53 57 59 61 63 64 66 66 67 67 67 66 64 63 62 61 61 60 60 60 59 58 57 56 56 54 52 51 50 48 46 45 45 44 43 43 43 42 41 41 41 41 40 39 38 38 38 38 37 37 37 37 37 36 36 35 35 34 34 32 30 27 26 25 23 22 20 20 18 14 14 13 12 12 10 10 13 16 17 15 11 11
31 34 37 41 44 48 51 54 56 58 59 60 61 62 63 63 63 62 60 60 59 59 58 58 57 57 56 55 55 54 53 51 49 48 46 44 43 42 43 43 42 41 40 39 39 39 38 38 37 35 34 35 35 34 34 33 33 33 32 31 30 28 26 25 24 22 20 18 16 14 13 14 14 13 12 10 9 9 8 4 5 10 12 14 17 15 11 11
31 33 36 39 43 46 49 51 53 54 56 57 58 58 59 59 58 58 57 57 56 56 55 55 55 54 53 53 52 51 49 47 45 44 42 40 40 41 42 41 39 38 37 37 36 36 36 35 32 30 30 31 31 30 30 29 27 27 26 24 22 20 18 17 16 14 12 11 9 6 7 10 9 8 10 9 8 9 9 8 10 10 8 9 13 13 13 12
31 33 36 39 41 44 46 48 50 51 52 53 54 55 55 55 55 55 54 54 53 53 52 52 52 51 50 49 48 46 45 43 41 39 38 38 38 39 40 39 37 36 35 34 34 34 32 30 28 27 27 28 28 27 26 24 21 20 19 17 15 14 12 10 10 8 6 5 4 4 7 9 9 13 13 9 7 9 8 9 10 7 5 5 6 7 9 9
31 33 36 38 40 43 45 46 48 49 49 50 51 52 52 52 52 52 51 51 50 50 49 49 49 48 46 45 44 42 41 38 36 35 36 37 37 37 37 36 35 34 32 31 31 31 28 26 26 25 25 25 24 22 21 18 15 13 13 11 9 8 7 6 5 3 2 3 4 6 9 10 10 14 16 11 6 5 3 3 5 4 3 3 3 4 6 8
32 33 35 37 39 41 43 44 45 46 47 48 49 49 50 50 49 49 49 48 48 47 46 45 44 43 42 41 40 39 36 34 33 34 35 35 34 34 35 34 33 31 29 27 27 26 24 23 24 23 22 21 19 17 15 12 9 8 8 6 4 4 3 3 2 2 3 6 9 12 14 15 12 12 15 14 9 7 6 5 6 4 3 3 4 6 8 10
31 33 35 36 38 39 41 41 43 44 45 46 46 47 47 47 47 47 46 45 45 43 42 41 41 40 39 39 37 34 32 31 32 33 32 32 32 31 32 32 30 28 25 24 24 23 21 21 21 19 18 16 14 11 9 7 5 4 4 2 2 2 4 4 5 7 8 10 13 16 17 17 14 11 12 15 13 12 13 11 8 5 3 3 6 8 11 12
30 32 33 34 36 37 38 39 40 41 42 43 43 43 44 44 44 43 43 42 41 40 39 39 38 37 36 35 32 31 31 31 31 31 30 30 30 29 29 29 27 24 22 21 21 20 19 19 18 15 13 12 10 7 5 4 2 0 1 2 3 4 7 8 7 9 10 11 12 13 13 13 10 6 9 14 13 11 11 9 7 5 4 5 8 10 12 12
29 30 31 32 33 34 35 37 38 38 39 39 40 40 41 41 40 39 38 38 37 37 36 35 34 32 32 31 30 30 30 30 30 29 29 28 27 26 26 26 23 20 19 19 19 17 16 15 13 10 9 8 6 4 4 3 1 3 3 4 5 6 9 10 9 11 12 11 10 8 8 8 6 4 7 11 10 7 6 6 5 5 7 8 10 11 11 11
29 29 29 30 31 32 33 34 35 35 35 35 36 36 36 35 34 34 34 33 33 32 31 30 29 28 29 28 28 28 28 28 28 28 27 26 25 24 25 24 20 17 17 17 16 13 12 11 9 8 7 5 2 2 2 1 3 6 6 5 6 7 9 10 10 11 12 11 9 8 7 6 5 5 6 7 7 6 5 5 5 6 8 9 10 11 11 12
28 28 28 28 29 29 30 30 31 31 31 31 30 30 30 29 29 28 28 28 27 27 26 26 26 27 27 26 26 26 26 26 25 24 23 23 22 22 24 22 17 16 16 15 13 11 9 8 6 6 5 3 2 3 2 4 7 9 9 8 8 8 9 9 9 9 10 10 9 9 7 4 2 3 3 3 3 2 2 3 5 7 9 10 11 12 12 13
27 27 27 27 27 27 27 27 26 26 26 26 25 25 25 24 24 25 25 25 25 25 25 26 26 26 26 26 25 24 23 22 21 20 19 20 21 22 24 20 14 14 15 14 11 8 7 7 6 6 5 4 5 5 4 6 9 11 10 10 10 9 8 8 7 6 6 7 8 9 8 5 2 1 2 2 3 3 4 5 7 9 10 11 12 12 13 14
26 26 26 25 25 25 24 23 23 22 22 22 21 21 22 22 24 25 25 25 25 25 26 27 26 26 26 26 26 25 23 21 19 18 18 20 21 21 23 18 13 14 14 12 8 6 7 7 7 7 6 6 7 7 6 8 10 10 9 9 9 9 8 7 7 5 4 5 5 7 8 7 5 5 6 6 7 7 8 9 10 10 10 10 11 12 12 12
25 25 24 24 23 23 22 21 21 20 20 20 21 22 23 24 25 25 25 25 26 26 26 25 24 24 24 23 23 22 21 19 18 18 18 20 20 20 21 16 12 13 12 9 7 7 9 9 9 9 8 8 10 9 8 9 10 9 8 7 6 7 6 5 5 4 2 2 2 3 5 6 7 8 9 9 10 10 9 9 8 8 8 9 9 9 9 9
26 26 25 25 26 25 24 23 22 22 22 23 25 26 26 26 26 25 25 25 25 24 23 22 22 21 20 18 17 17 17 17 17 18 18 18 18 19 19 15 12 12 10 8 9 10 11 11 11 10 9 10 11 10 8 8 8 7 5 5 4 4 5 3 2 1 0 1 2 2 3 4 6 8 9 9 9 9 8 8 8 8 8 7 6 6 6 7
27 27 28 28 28 27 26 25 25 26 27 28 28 28 27 26 25 24 23 22 22 21 21 20 20 19 18 16 15 16 17 17 18 18 17 17 18 19 18 14 11 11 10 10 11 12 13 13 13 11 11 11 11 10 9 8 7 5 2 3 3 2 3 2 1 2 2 2 2 3 4 5 7 8 8 8 8 8 8 7 7 7 6 5 4 4 5 7
28 29 29 29 29 28 27 28 28 29 29 28 27 25 24 23 22 21 20 20 19 19 18 17 16 15 14 13 14 15 16 17 18 16 16 17 19 19 17 12 9 10 11 12 12 13 14 14 13 11 10 11 10 11 10 8 6 4 2 3 5 4 3 2 1 2 3 3 2 2 3 5 6 7 8 7 7 7 7 7 6 6 6 5 5 6 7 10
29 30 30 30 30 30 30 30 30 29 28 26 25 24 23 23 22 21 19 18 16 15 13 12 11 10 10 11 11 12 13 14 15 15 16 18 18 16 13 8 8 10 10 11 12 13 15 14 13 11 10 10 11 11 11 9 6 4 2 4 6 5 3 2 0 2 2 2 1 2 4 6 6 7 7 8 8 7 7 6 6 6 5 6 7 8 10 12
30 31 31 31 31 31 30 29 28 27 26 26 26 25 24 22 21 19 17 15 13 11 10 10 10 10 9 9 8 8 10 12 14 16 18 18 16 12 8 8 12 12 11 10 11 13 14 14 13 12 11 10 10 10 11 10 7 4 4 5 6 4 2 2 1 2 2 2 2 4 5 6 7 6 7 8 7 6 6 5 5 5 6 8 10 11 12 14
31 31 31 31 30 28 27 26 26 26 27 26 26 24 22 21 19 18 15 13 11 10 10 11 11 11 10 9 8 6 7 11 13 15 15 14 12 10 10 13 15 14 13 11 10 11 12 13 14 14 12 11 10 10 11 11 9 6 5 5 5 3 2 2 4 4 4 3 3 3 5 7 8 7 7 7 6 6 5 5 6 6 7 10 12 13 14 16
31 31 30 28 27 26 26 27 28 28 27 26 24 22 20 18 16 15 13 12 11 12 13 12 11 11 10 11 10 7 4 7 10 10 10 9 9 11 15 16 14 14 13 13 12 11 10 11 12 13 13 12 11 11 11 10 9 7 6 6 5 4 2 3 5 6 6 5 4 4 5 7 7 8 7 7 6 6 6 6 8 9 10 11 13 14 16 17
30 29 28 27 27 28 29 29 28 27 25 23 21 19 17 15 14 13 13 12 11 11 11 10 9 9 9 10 10 8 4 4 4 5 7 9 10 14 17 16 14 13 13 13 13 12 10 9 11 11 12 13 13 12 11 10 10 9 9 8 6 5 5 5 6 7 8 7 6 6 7 8 9 9 8 8 8 8 8 9 10 11 11 13 14 16 17 18
29 28 28 29 30 31 30 28 26 25 22 20 19 17 15 14 12 13 12 11 10 10 8 8 8 7 6 8 9 7 4 4 3 4 8 10 12 14 16 15 14 13 13 13 13 12 11 11 11 12 11 12 12 12 12 11 11 10 10 10 8 7 7 8 8 8 9 9 8 9 10 10 11 10 10 10 10 11 11 11 12 12 13 14 15 17 17 17
29 30 31 32 32 30 28 26 24 22 21 19 18 16 15 14 12 11 11 11 11 9 7 6 7 7 6 6 8 8 5 6 5 6 10 12 13 14 15 14 14 13 12 11 11 11 11 11 12 13 13 12 12 12 12 12 12 12 11 9 9 9 9 10 10 9 10 10 10 11 12 12 12 12 12 12 12 13 13 13 13 13 13 15 15 15 15 15
30 32 33 32 30 28 26 25 23 21 20 18 17 16 14 13 11 10 10 11 10 9 7 6 7 7 7 7 9 8 5 7 7 7 10 12 13 13 13 12 12 11 11 10 10 10 11 12 13 13 14 14 14 14 13 13 13 13 13 11 11 11 11 11 11 10 10 10 11 13 14 14 13 13 14 14 14 14 14 14 13 12 13 15 14 13 13 13
33 33 32 31 29 27 26 24 23 21 19 17 16 15 13 11 10 9 9 10 10 9 7 6 6 8 9 9 10 8 6 8 8 8 9 10 11 11 10 9 9 9 9 9 10 11 12 14 14 15 16 16 16 16 16 16 15 15 15 14 14 14 13 13 12 11 11 12 12 14 15 15 15 15 15 15 15 15 15 16 15 13 13 14 13 11 12 12
33 32 31 30 29 27 25 23 22 21 19 17 15 13 12 12 10 9 9 9 10 9 7 5 6 8 11 10 9 9 8 9 9 8 8 9 9 8 7 8 8 9 8 8 9 10 10 10 12 14 16 16 17 17 18 18 17 17 16 16 16 16 15 14 14 14 14 14 14 14 15 15 15 15 16 16 16 17 18 17 15 12 11 12 11 9 9 9
32 31 30 29 28 27 25 24 22 21 19 17 15 13 13 12 11 11 10 11 11 10 9 7 7 9 10 10 10 10 10 10 9 8 8 8 7 7 7 8 8 8 7 7 7 7 6 5 6 8 10 12 13 14 15 16 16 16 16 16 17 16 16 15 16 16 16 15 15 14 13 13 13 14 16 17 17 18 18 15 12 9 8 10 9 7 6 4
31 30 28 27 26 25 25 24 23 21 19 16 15 14 14 13 13 12 13 13 13 12 11 9 9 9 9 10 10 10 9 9 8 7 7 6 6 7 7 7 7 7 7 7 6 6 5 4 4 5 7 8 8 9 11 12 13 14 15 15 15 15 16 16 16 16 16 16 14 12 12 12 13 15 16 17 17 17 16 12 9 6 5 7 7 6 3 3
29 28 27 26 25 25 24 23 22 21 19 17 16 15 15 15 14 14 13 14 13 13 12 11 11 11 10 10 10 9 9 8 7 7 6 5 5 5 5 5 5 6 7 7 6 6 6 4 3 4 5 6 6 6 7 8 9 11 12 13 13 13 14 14 15 15 15 14 13 12 11 11 13 14 15 15 16 15 13 10 7 4 3 4 4 3 3 6
28 28 26 26 26 26 25 23 22 21 19 18 17 17 17 16 15 15 14 14 14 14 14 13 12 12 11 11 10 9 9 9 8 6 6 5 5 5 5 5 5 6 6 6 5 5 6 5 4 4 5 5 5 6 6 6 6 7 8 9 10 11 12 12 13 13 13 14 14 13 11 10 11 12 12 12 12 10 9 7 5 3 2 1 3 2 5 7
29 28 27 27 27 26 25 24 23 22 21 20 19 19 19 18 17 16 16 16 15 15 15 15 13 13 12 12 11 10 9 9 8 8 7 5 5 5 6 7 7 6 6 6 6 6 7 7 6 6 7 7 8 8 8 7 7 7 7 8 9 9 10 10 11 11 12 13 13 13 10 8 9 9 8 8 7 5 4 4 3 1 3 5 6 4 7 7
31 30 28 28 28 27 25 25 23 23 22 21 21 21 21 20 18 17 17 17 16 16 16 16 16 15 14 13 12 11 10 10 10 9 8 7 5 6 6 6 6 5 5 6 7 7 7 8 8 8 8 8 8 8 8 8 8 8 8 8 8 8 8 9 9 10 11 12 13 12 9 6 7 6 4 4 3 2 1 1 1 4 7 8 7 6 8 6
32 31 30 30 29 27 26 25 24 24 23 22 21 21 22 21 20 19 18 18 17 16 16 17 16 16 16 14 13 12 11 11 10 10 9 8 7 6 6 6 6 6 6 6 7 7 8 8 9 8 7 6 5 5 5 6 8 8 8 7 7 8 8 8 9 10 10 11 12 11 7 5 5 3 1 2 1 1 2 3 5 7 9 8 8 8 8 6
33 31 30 30 29 27 27 27 25 25 24 22 21 21 21 22 21 19 18 18 17 16 16 16 16 16 16 15 13 12 12 12 11 11 10 9 8 7 7 7 7 7 7 7 7 7 7 8 7 6 6 5 4 4 4 5 6 5 5 5 5 6 6 7 7 8 8 9 9 8 5 4 2 1 3 3 3 4 6 7 9 9 9 8 8 8 7 5
33 31 30 30 29 29 29 28 26 25 25 24 23 22 22 23 22 19 17 17 16 16 16 15 15 14 14 14 14 12 12 11 12 12 11 10 8 7 6 7 7 7 7 7 6 7 7 6 5 5 5 4 4 4 4 3 3 2 2 3 4 4 5 5 5 5 6 6 6 5 3 1 2 5 6 6 7 8 9 9 9 9 8 7 7 6 6 5
33 32 31 31 30 30 30 29 27 26 26 26 25 24 22 22 23 21 18 16 15 15 15 13 13 13 12 13 13 12 11 10 11 11 12 11 9 8 7 7 7 6 7 7 7 7 6 5 5 5 5 4 4 4 4 3 3 3 4 4 4 5 5 4 4 4 5 5 5 4 3 4 6 8 9 9 10 10 9 9 8 8 7 6 5 5 5 5
34 33 32 32 32 31 31 30 28 28 28 28 28 26 24 23 24 23 20 17 16 15 15 13 12 12 11 12 12 12 11 10 9 10 10 10 10 9 10 9 7 7 7 8 8 7 6 5 5 6 7 7 7 7 6 6 6 7 7 7 7 7 6 6 6 7 7 8 7 6 7 7 9 10 11 11 10 9 8 8 7 7 6 4 4 4 4 3
35 35 34 33 33 33 32 31 30 29 29 29 28 27 25 24 24 24 21 18 17 16 16 14 12 12 12 11 12 12 12 10 9 8 9 9 9 10 11 10 8 8 8 8 9 9 8 7 7 8 9 10 10 9 8 8 7 8 8 8 8 8 8 8 8 9 10 10 10 9 10 10 11 11 12 11 10 8 7 7 6 6 5 4 4 3 3 2
36 36 35 35 35 35 34 33 32 30 30 29 28 28 26 24 25 24 22 20 18 18 17 15 14 13 12 12 12 12 12 10 9 7 8 9 9 10 11 10 9 9 9 9 9 9 9 8 8 9 9 9 9 9 9 9 8 8 8 8 8 9 10 10 10 11 12 12 11 11 12 12 11 11 10 10 8 7 6 6 5 4 3 3 3 3 2 2
37 36 36 36 36 36 35 34 33 31 29 29 29 29 27 26 25 24 23 21 20 18 18 16 15 13 13 13 12 12 11 10 9 7 7 9 9 9 10 10 9 9 8 8 8 9 9 9 9 9 9 9 9 10 10 10 9 9 9 9 10 11 11 11 11 12 13 13 12 12 12 12 11 10 9 8 7 6 5 4 3 3 3 3 3 2 1 1
38 37 37 37 37 36 35 34 32 31 30 30 31 31 29 27 25 24 23 22 21 20 18 17 16 14 13 13 13 12 10 9 9 7 7 9 10 9 9 9 9 9 8 8 8 8 8 9 9 9 9 10 11 12 11 11 11 11 11 11 12 12 12 11 11 11 12 12 12 12 12 11 10 8 7 6 5 4 3 2 2 2 2 2 2 1 2 3
39 38 38 39 38 37 35 33 32 31 31 32 33 32 31 28 26 25 24 23 22 21 20 18 16 14 13 13 13 12 10 8 8 7 7 8 9 10 10 9 8 9 8 8 8 8 8 8 9 9 10 10 12 13 13 12 11 11 11 11 11 11 11 10 9 10 10 11 10 10 10 9 8 7 5 4 3 2 1 1 1 2 2 2 2 2 4 5
Wind_Direction
227 226 225 224 223 224 225 226 227 228 228 229 228 228 229 230 232 234 236 238 240 242 243 245 247 249 251 253 255 257 259 261 263 265 266 268 269 270 271 273 274 275 275 277 278 279 279 279 278 277 275 274 273 272 272 271 271 271 271 272 272 272 273 272 272 272 272 273 273 274 275 276 276 277 277 276 276 277 276 276 276 276 276 276 275 274 274 273
223 222 221 221 220 221 222 223 224 226 227 227 228 228 228 229 231 232 235 237 239 241 243 244 246 248 250 252 255 257 259 261 263 265 267 268 269 271 272 274 275 276 278 279 280 280 280 279 277 276 275 274 274 273 273 273 272 272 273 273 273 273 273 273 273 273 274 275 275 276 276 276 276 276 275 275 275 275 274 275 275 274 273 273 273 273 273 273
218 217 217 217 217 217 218 220 221 223 224 226 226 227 227 228 230 231 234 236 238 240 242 244 246 248 250 252 255 257 259 262 264 265 267 268 270 272 273 275 277 278 279 280 280 279 278 276 275 275 274 274 273 273 273 273 273 273 273 274 274 275 275 275 275 276 276 277 277 277 276 275 275 274 274 273 273 273 273 273 271 271 271 271 272 272 272 271
212 212 212 212 212 213 214 216 218 220 222 224 225 226 226 227 229 230 233 235 237 239 241 243 245 248 250 252 255 257 260 262 264 265 267 269 271 273 275 276 278 279 280 280 279 277 276 275 275 275 274 274 274 274 273 273 274 274 275 276 277 277 277 277 277 277 277 277 277 276 275 274 274 273 272 272 271 271 270 268 267 268 268 269 269 270 269 269
206 206 206 207 207 209 210 212 215 217 219 221 223 224 225 226 228 230 232 234 236 238 240 243 245 247 250 252 255 257 260 262 264 266 268 270 272 274 276 277 278 279 279 278 277 277 276 276 276 276 275 275 275 275 275 275 276 277 278 279 278 278 278 278 278 277 278 277 277 276 276 276 274 273 271 271 270 268 267 265 265 265 265 265 267 267 267 266
198 199 199 200 202 204 206 209 211 214 216 219 221 223 224 225 227 229 231 233 235 237 240 242 245 247 250 252 255 257 260 262 264 266 268 270 273 275 276 277 278 278 277 277 276 276 276 276 276 275 275 276 277 277 277 278 278 278 279 278 277 277 277 277 278 278 279 278 278 278 277 275 273 271 270 268 267 266 265 264 263 263 263 263 264 263 262 263
189 191 192 194 197 199 202 205 208 211 213 216 218 221 223 224 226 228 230 232 234 237 239 242 245 247 249 252 254 257 259 262 264 266 269 271 273 275 276 277 277 277 277 277 276 276 276 275 274 274 275 277 278 278 278 279 279 279 278 277 277 278 278 279 279 279 279 278 277 275 273 271 270 269 267 266 265 264 263 262 261 261 261 261 260 259 258 258
181 183 186 189 192 195 199 202 205 208 210 213 216 218 221 223 225 227 229 231 234 237 239 242 244 247 249 252 254 257 259 262 264 267 270 272 274 275 276 276 276 276 276 276 276 275 274 274 274 275 276 277 277 277 277 279 279 279 279 279 280 280 281 280 280 279 278 276 274 272 271 269 268 267 266 265 263 260 258 257 257 258 260 261 259 253 250 250
174 178 181 184 188 191 195 198 201 205 208 210 213 216 219 221 224 226 228 231 233 236 238 241 244 246 249 251 254 257 259 262 265 267 270 272 274 275 276 276 275 275 274 274 274 273 273 273 273 274 275 276 276 276 276 277 279 279 280 281 281 282 281 280 279 279 279 278 277 276 274 272 269 267 265 261 257 252 245 249 255 255 246 241 242 238 240 248
168 173 177 180 184 188 191 195 198 202 205 208 211 214 217 220 222 225 227 230 232 235 237 240 243 246 248 251 254 257 260 262 265 267 270 273 275 275 275 274 273 272 272 272 271 271 271 271 272 273 275 275 275 276 277 279 280 281 282 282 282 282 282 282 283 285 285 284 283 281 278 274 270 265 255 241 243 238 228 241 243 224 210 210 221 230 239 245
162 168 172 176 180 184 188 192 195 199 202 206 209 212 215 218 221 223 226 229 231 234 237 239 242 245 249 251 254 257 260 262 265 269 272 274 274 274 273 272 271 270 270 269 269 269 269 270 272 274 275 275 276 279 281 282 283 283 282 283 283 284 286 289 292 295 296 293 290 287 277 270 264 250 225 208 217 207 199 201 178 198 204 203 212 216 221 231
156 162 167 172 176 180 185 189 193 197 200 204 207 210 214 216 219 222 225 228 230 233 236 239 243 246 249 252 255 257 260 264 267 271 272 273 272 270 270 269 268 267 267 267 268 268 270 272 274 276 277 279 280 282 284 285 285 285 285 286 289 292 294 299 305 309 310 305 297 280 250 245 235 205 186 184 188 183 177 159 167 202 209 201 213 217 227 241
151 157 162 167 172 176 181 186 190 195 199 202 206 209 212 215 218 221 224 227 230 233 236 239 243 246 250 253 256 259 262 265 268 269 269 268 268 267 267 266 265 265 265 266 267 269 271 275 277 279 281 283 284 285 285 285 286 287 289 294 300 304 307 314 321 323 315 300 275 222 202 202 187 170 158 152 173 181 179 168 174 202 209 205 222 229 245 262
145 151 157 162 168 174 179 184 189 193 197 201 205 208 211 214 217 220 223 227 230 233 237 240 244 247 251 254 257 260 262 264 265 266 265 264 264 264 263 263 262 263 264 266 269 271 275 279 281 283 285 287 287 288 287 286 288 290 296 305 311 314 324 335 339 329 278 207 183 171 163 157 160 165 153 140 159 168 145 165 181 196 199 215 257 274 282 288
142 148 154 160 166 172 178 183 188 192 196 200 204 207 211 214 217 220 223 227 230 234 237 241 244 248 251 254 257 259 261 261 261 261 261 261 260 259 260 260 261 262 263 267 270 274 278 283 286 289 291 290 290 290 288 288 291 296 304 316 326 335 360 21 44 102 149 153 156 154 146 141 148 164 159 145 141 149 155 179 194 197 196 227 267 279 279 279
139 145 152 159 165 171 177 182 187 191 196 200 204 207 210 214 217 220 224 227 231 235 238 241 244 247 250 253 255 256 257 257 257 258 258 257 255 255 257 259 261 262 264 267 271 276 284 288 290 293 294 292 290 289 290 292 296 305 313 343 22 54 90 100 111 126 140 146 153 157 154 154 160 168 168 157 151 162 177 190 203 215 232 243 258 265 270 277
137 144 151 158 164 171 176 181 187 191 196 200 203 207 210 214 217 221 224 228 231 235 237 240 243 246 249 251 252 252 252 252 252 251 250 250 251 252 254 258 261 264 267 270 275 283 290 292 292 294 294 289 285 289 303 305 293 88 77 82 80 105 119 117 122 128 133 142 152 161 166 169 171 160 155 161 165 175 186 199 207 217 250 262 267 273 279 290
136 143 150 157 164 170 176 181 186 191 195 199 203 207 210 214 217 221 225 228 231 234 237 240 243 245 247 247 247 248 248 247 246 244 244 245 247 249 252 256 260 267 273 278 284 291 293 291 290 287 282 279 286 315 333 323 160 129 125 113 104 125 133 126 127 128 127 135 142 148 157 163 165 148 148 165 180 198 216 234 230 233 258 269 276 283 293 303
134 141 149 156 163 169 175 180 185 190 194 199 203 206 210 213 217 221 224 228 231 234 237 240 241 242 243 244 246 246 245 244 242 241 241 242 244 248 252 255 261 270 276 282 288 290 286 284 279 269 267 273 298 2 353 13 123 117 117 116 116 139 149 136 125 124 125 132 136 136 143 153 157 158 165 180 198 221 243 262 263 265 275 283 290 296 302 304
133 140 147 154 161 167 173 178 183 188 192 196 201 204 208 211 215 219 223 226 230 232 233 234 235 237 239 240 240 241 240 240 240 240 241 243 246 250 255 257 263 273 277 282 284 277 270 266 252 250 254 233 143 132 148 131 119 112 110 110 112 133 158 153 132 121 123 128 131 132 141 157 150 136 157 187 218 245 258 268 273 278 286 291 296 299 301 300
133 139 145 151 156 161 167 172 176 180 185 190 194 198 203 207 211 215 217 219 221 223 225 226 228 230 231 229 229 230 229 229 232 236 241 247 251 255 259 261 266 273 277 279 273 259 250 238 221 224 222 186 151 145 149 123 111 106 104 102 100 107 128 141 131 120 123 132 141 148 156 170 169 128 177 229 273 287 280 274 276 280 287 293 298 301 302 301
133 138 142 147 151 154 156 159 163 170 176 181 185 191 196 200 204 206 208 210 212 215 217 219 220 221 223 222 221 221 220 219 223 232 240 248 253 257 261 264 268 272 275 271 256 230 228 223 211 207 195 172 152 144 138 117 107 103 100 97 96 96 98 110 113 110 114 124 147 166 174 185 199 201 207 230 251 263 269 274 277 281 285 292 298 301 303 305
129 133 137 138 139 139 140 145 152 159 164 170 176 183 188 192 196 199 201 203 207 210 212 214 216 218 221 222 222 222 223 223 227 235 243 249 254 259 263 266 268 268 265 252 222 204 214 216 208 201 189 171 155 147 142 126 114 109 106 101 102 103 99 98 104 106 113 126 152 180 180 188 210 220 226 237 246 254 261 266 272 277 283 290 298 302 307 312
126 127 127 127 126 127 131 138 145 152 159 166 173 179 183 187 191 194 197 200 204 207 207 208 209 212 215 216 220 226 230 233 236 240 244 251 257 260 263 265 262 258 245 219 195 195 207 210 206 200 191 178 162 154 152 137 123 116 115 117 114 113 109 98 90 110 227 217 222 237 216 202 216 227 233 239 244 248 251 256 262 270 278 286 295 303 309 312
125 126 125 125 127 129 134 142 150 158 164 170 174 178 181 184 187 190 193 196 199 201 201 202 203 205 206 210 219 229 236 239 239 240 243 249 253 255 257 257 250 239 219 194 186 195 205 209 209 203 195 188 174 164 159 151 133 110 111 149 152 149 133 128 260 275 283 286 267 251 231 218 223 225 226 232 236 239 243 249 256 262 267 270 277 293 303 306
130 131 132 133 135 139 146 154 161 165 168 170 172 174 176 179 182 183 186 189 191 194 198 200 202 205 208 217 226 233 239 240 239 241 244 247 247 248 252 250 237 223 204 184 183 197 206 210 215 214 206 199 190 178 170 167 146 93 56 191 185 192 183 171 286 313 314 307 288 222 193 198 213 214 209 211 215 220 227 233 237 240 245 257 272 288 303 309
137 139 140 142 146 152 158 163 165 165 165 165 166 167 170 172 173 174 177 179 183 189 195 200 205 213 218 224 232 241 248 248 247 246 244 242 241 245 250 235 204 200 192 179 182 198 208 212 217 219 215 207 202 194 185 181 161 115 125 193 187 193 201 192 326 336 314 279 203 158 168 181 193 198 195 193 195 202 212 219 226 238 257 276 288 298 308 311
144 146 148 151 156 160 162 162 161 159 159 160 162 163 165 166 165 167 170 172 178 187 200 208 212 215 217 219 226 240 248 245 242 238 235 233 231 233 229 195 180 181 183 180 182 195 206 212 215 214 210 210 211 208 202 195 180 153 163 184 181 185 205 212 237 279 260 231 194 168 170 177 182 188 192 193 196 202 212 225 240 261 286 297 300 305 310 311
150 152 154 157 158 158 156 154 153 154 156 158 159 159 159 160 162 164 167 172 181 192 203 208 207 205 203 204 199 203 227 228 223 223 225 226 220 207 188 179 176 176 180 187 189 193 200 207 214 215 213 217 222 222 219 211 200 187 189 196 193 195 241 252 240 246 249 246 231 195 184 184 187 193 200 203 208 214 228 249 266 282 293 298 301 305 310 313
154 155 156 155 153 151 150 150 151 154 155 154 154 154 156 158 161 165 170 177 185 196 203 203 204 201 197 197 181 157 186 216 210 210 212 209 199 185 175 172 174 174 180 195 204 205 204 206 215 221 220 220 225 230 229 221 213 211 215 215 214 220 258 270 245 237 242 249 251 225 210 208 207 210 216 221 229 237 248 263 277 285 291 294 299 304 309 312
156 155 153 150 150 149 150 150 151 151 150 150 151 152 154 159 163 170 174 178 187 202 206 201 201 198 195 194 171 137 144 186 191 199 189 177 175 174 170 168 171 174 183 198 210 218 221 221 227 231 227 221 223 229 232 229 223 225 231 230 233 242 253 266 252 236 236 244 252 243 230 227 226 229 234 241 248 256 264 273 280 286 290 294 300 304 307 311
155 152 150 150 150 150 150 149 148 148 147 149 150 151 156 163 169 175 173 174 185 194 195 195 196 187 186 183 149 116 118 138 141 169 160 156 164 168 168 168 170 176 186 197 209 219 227 233 238 239 238 233 229 229 232 235 235 237 243 245 252 257 256 264 262 245 239 242 248 250 243 238 238 241 246 251 259 268 276 283 289 292 294 297 302 306 308 311
153 152 151 151 150 149 148 148 146 147 149 152 153 155 161 165 169 176 174 171 174 174 173 184 186 168 162 154 120 96 103 121 130 158 154 154 163 169 173 173 172 179 188 194 203 215 225 233 237 240 243 244 242 236 231 234 238 240 245 250 257 258 257 261 265 259 251 249 252 254 252 248 250 255 261 266 273 280 286 291 294 297 299 302 308 312 312 316
154 153 152 150 149 148 148 148 149 151 153 154 156 160 164 165 165 169 171 167 160 157 165 175 173 154 137 118 100 89 103 118 127 155 159 159 167 176 181 178 178 188 195 200 207 217 225 229 232 236 240 243 243 239 234 232 235 238 240 243 247 249 249 254 260 262 261 262 263 263 261 257 260 269 277 280 283 285 289 295 300 303 307 310 314 315 315 320
154 154 153 151 151 149 149 151 152 153 153 154 158 161 159 156 156 158 162 159 150 147 153 163 165 144 117 99 94 92 99 114 126 145 160 167 173 181 185 184 192 202 207 215 224 232 236 233 230 232 236 239 239 237 234 233 234 236 237 239 241 244 246 247 253 259 264 270 271 269 267 265 270 280 285 285 285 285 290 298 303 308 313 313 313 315 317 322
155 155 155 154 153 151 152 153 153 152 153 155 157 155 149 145 147 151 152 147 140 137 136 140 142 123 106 99 102 105 109 114 120 135 154 166 174 180 186 196 209 216 219 223 232 239 237 230 226 226 229 234 235 236 236 234 234 235 236 239 242 245 246 246 251 260 267 274 275 271 268 269 274 283 287 286 285 286 293 300 303 311 317 309 308 316 319 324
158 158 158 157 155 154 154 154 153 153 155 154 151 146 143 141 141 141 138 133 128 126 125 122 116 109 109 113 116 117 119 117 118 130 145 157 169 181 194 206 214 219 219 217 226 234 226 216 219 218 219 224 229 231 234 236 237 238 239 242 245 247 247 249 255 264 274 280 279 273 268 271 278 285 287 286 286 289 295 299 305 318 315 302 310 322 324 338
160 161 160 158 155 156 156 156 156 156 154 150 148 146 142 138 135 133 131 129 127 128 128 126 120 115 117 121 119 119 120 117 122 130 140 152 168 179 190 201 206 207 205 204 210 220 222 219 210 199 200 207 215 220 226 232 236 240 244 246 247 247 248 251 258 267 276 278 275 268 266 271 278 283 285 286 287 290 295 301 312 323 312 308 319 324 348 76
161 163 161 158 158 160 161 160 159 156 151 151 152 146 138 132 130 129 129 129 130 130 128 127 126 124 122 121 117 117 118 120 126 133 139 153 167 177 183 187 191 188 187 190 193 200 215 221 186 167 177 189 198 206 214 224 233 239 244 246 246 246 248 253 258 264 268 268 267 267 267 271 275 277 278 279 282 288 296 305 313 317 319 323 310 301 75 105
163 165 163 161 163 166 165 162 158 155 154 157 154 142 133 129 126 125 125 127 128 127 124 121 120 118 116 114 113 113 118 123 128 135 147 156 163 174 178 178 186 185 178 178 178 180 192 197 178 172 181 189 199 206 209 218 230 238 243 245 246 246 248 249 252 256 260 264 268 269 267 266 268 269 271 273 276 283 292 299 303 318 2 167 220 205 103 114
167 167 167 167 170 170 167 162 159 157 160 158 149 139 133 129 125 123 123 124 124 125 123 120 117 115 114 114 114 115 117 119 123 132 144 150 153 163 170 174 184 187 175 171 179 183 182 182 187 195 198 200 206 210 211 214 220 225 232 240 245 247 249 249 251 255 261 266 268 268 268 265 264 268 272 273 270 267 270 281 301 23 119 156 179 151 115 124
172 170 171 173 174 173 167 163 161 161 161 156 149 144 137 132 127 124 122 120 121 121 120 117 115 113 111 110 110 111 113 114 118 124 130 136 144 155 165 173 179 183 179 178 185 191 190 189 196 205 210 210 209 205 204 209 215 218 221 228 237 244 247 249 252 255 259 264 268 274 279 277 275 282 279 260 251 230 233 252 90 114 136 154 157 134 124 132
177 174 174 176 176 173 168 165 164 163 160 156 153 149 142 135 130 126 123 119 117 115 113 110 108 107 104 102 102 104 106 107 108 110 112 117 124 134 150 165 175 183 192 196 193 191 191 196 201 205 213 222 223 211 202 206 212 216 216 219 227 236 241 243 242 245 250 257 265 274 283 285 288 300 237 192 175 138 133 120 117 127 139 145 138 128 127 127
179 178 178 178 177 173 170 169 168 166 160 157 156 153 145 136 130 126 123 120 118 117 113 110 108 106 104 101 99 99 99 99 98 97 98 101 108 115 129 146 160 172 181 185 183 175 174 185 192 187 193 208 215 217 212 205 203 207 211 218 228 234 236 234 231 230 234 243 252 264 275 285 289 135 136 140 131 126 122 117 121 129 135 135 131 130 128 119
179 180 181 180 178 175 174 173 172 168 162 161 159 154 147 140 132 130 129 126 125 122 117 115 112 110 108 106 103 98 94 92 91 89 87 89 96 103 111 119 130 144 152 152 150 147 153 167 167 156 165 182 187 187 192 191 184 187 208 222 224 225 223 220 211 207 211 220 231 244 255 241 135 127 125 121 116 114 112 114 122 128 129 128 125 121 116 109
181 183 184 182 180 178 177 176 175 172 166 166 163 154 150 147 139 137 136 134 132 128 123 122 120 118 115 112 108 103 97 91 88 86 84 84 88 95 98 96 100 111 120 124 129 136 143 147 136 130 139 150 150 146 147 151 151 157 174 187 192 194 192 185 179 181 184 183 190 195 172 139 130 121 115 112 110 110 111 116 121 122 119 116 107 99 100 103
184 186 187 185 183 182 180 179 179 176 172 173 167 155 153 155 147 142 141 141 141 138 132 131 130 125 121 115 111 108 104 97 88 85 84 83 84 88 89 88 92 101 107 113 121 125 127 122 109 104 107 110 111 116 122 130 134 140 151 160 167 167 159 155 155 154 152 153 156 150 138 134 127 119 115 115 114 114 115 116 116 114 111 105 90 85 88 92
189 189 190 188 186 186 184 183 184 180 178 180 171 156 157 163 154 146 146 149 151 147 141 140 138 132 125 119 112 107 102 97 92 90 88 85 82 81 83 87 93 97 99 104 107 108 109 109 101 93 91 93 96 102 108 112 113 118 130 140 145 142 139 139 138 136 137 141 140 136 135 133 127 122 122 120 119 119 117 114 113 111 109 96 78 71 68 65
193 192 192 191 191 190 187 187 188 184 182 182 171 159 163 168 160 153 153 156 157 152 147 145 143 138 129 120 110 104 101 99 96 93 91 88 83 79 80 82 86 89 92 93 96 96 99 101 99 95 92 90 92 94 97 100 102 104 111 119 126 127 127 128 128 128 131 133 134 134 133 131 127 125 122 120 120 119 115 112 110 105 94 79 70 60 53 35
196 194 193 194 196 194 191 190 191 188 185 182 172 165 168 170 164 160 159 160 160 156 152 150 148 144 136 123 112 106 105 104 101 94 88 87 83 81 81 81 81 84 88 91 93 94 95 95 95 96 98 98 99 97 97 100 103 104 107 112 118 119 121 121 122 123 125 128 132 133 132 130 127 124 121 120 119 115 110 107 99 85 73 68 68 61 29 324
199 197 196 198 200 198 194 192 192 190 187 183 177 172 171 170 169 167 165 164 164 161 159 157 156 153 144 131 120 114 110 106 104 97 87 84 82 79 81 84 86 87 87 89 92 93 95 96 96 99 102 106 107 103 100 101 102 103 106 111 114 115 116 117 119 120 123 128 131 132 132 130 126 124 122 119 116 110 100 83 62 59 54 47 38 360 312 304
200 199 198 200 203 202 198 193 191 190 188 186 183 179 174 174 174 173 171 170 168 166 166 164 162 161 154 141 130 123 116 110 105 98 87 81 80 77 76 81 88 90 88 86 86 88 93 97 102 106 108 110 110 108 104 103 103 104 107 111 112 110 113 119 124 124 125 128 131 133 136 134 131 130 130 127 124 113 96 34 357 357 2 4 347 320 309 308